Time,TemperatureF,DewpointF,PressureIn,WindDirection,WindDirectionDegrees,WindSpeedMPH,WindSpeedGustMPH,Humidity,HourlyPrecipIn,Conditions,Clouds,dailyrainin,SolarRadiationWatts/m^2,SoftwareType,DateUTC
2013-06-28 00:01:00,71.8,70.3,29.52,SSW,203,0.0,1.0,95,0.00,,,0.00,520,WeatherCatV1.14B232,2013-06-28 04:01:00,
2013-06-28 00:06:00,71.7,70.2,29.52,SSW,203,0.0,1.0,95,0.00,,,0.00,520,WeatherCatV1.14B232,2013-06-28 04:06:00,
2013-06-28 00:11:00,71.6,70.1,29.51,SSW,203,0.0,2.0,95,0.00,,,0.00,520,WeatherCatV1.14B232,2013-06-28 04:11:00,
2013-06-28 00:16:00,71.5,70.0,29.52,SSW,203,0.0,1.0,95,0.00,,,0.00,520,WeatherCatV1.14B232,2013-06-28 04:16:00,
2013-06-28 00:21:00,71.4,69.9,29.52,SSW,203,0.0,2.0,95,0.00,,,0.00,520,WeatherCatV1.14B232,2013-06-28 04:21:00,
2013-06-28 00:26:00,71.3,69.8,29.52,SSW,203,0.0,2.0,95,0.00,,,0.00,520,WeatherCatV1.14B232,2013-06-28 04:26:00,
2013-06-28 00:31:00,71.2,69.7,29.52,SSW,203,1.0,2.0,95,0.00,,,0.00,520,WeatherCatV1.14B232,2013-06-28 04:31:00,
2013-06-28 00:36:00,71.1,69.6,29.52,SSW,203,1.0,2.0,95,0.00,,,0.00,520,WeatherCatV1.14B232,2013-06-28 04:36:00,
2013-06-28 00:41:00,71.0,69.5,29.52,SSW,203,0.0,2.0,95,0.00,,,0.00,520,WeatherCatV1.14B232,2013-06-28 04:41:00,
2013-06-28 00:46:00,70.9,69.4,29.52,SSW,203,1.0,6.0,95,0.00,,,0.00,520,WeatherCatV1.14B232,2013-06-28 04:46:00,
2013-06-28 00:51:00,70.7,69.2,29.52,SSW,203,1.0,3.0,95,0.00,,,0.00,520,WeatherCatV1.14B232,2013-06-28 04:51:00,
2013-06-28 00:56:00,70.7,69.2,29.52,SSW,203,0.0,2.0,95,0.00,,,0.00,520,WeatherCatV1.14B232,2013-06-28 04:56:00,
2013-06-28 01:01:00,70.7,69.2,29.52,SSW,203,1.0,3.0,95,0.00,,,0.00,520,WeatherCatV1.14B232,2013-06-28 05:01:00,
2013-06-28 01:06:00,70.7,69.2,29.52,SSW,203,0.0,0.0,95,0.00,,,0.00,520,WeatherCatV1.14B232,2013-06-28 05:06:00,
2013-06-28 01:11:00,70.7,69.5,29.52,SSW,203,2.0,4.0,96,0.00,,,0.00,520,WeatherCatV1.14B232,2013-06-28 05:11:00,
2013-06-28 01:16:00,70.7,69.5,29.52,SSW,203,1.0,2.0,96,0.00,,,0.00,520,WeatherCatV1.14B232,2013-06-28 05:16:00,
2013-06-28 01:21:00,70.8,69.6,29.52,SSW,203,0.0,2.0,96,0.00,,,0.00,520,WeatherCatV1.14B232,2013-06-28 05:21:00,
2013-06-28 01:26:00,70.8,69.6,29.52,SSW,203,1.0,2.0,96,0.00,,,0.00,520,WeatherCatV1.14B232,2013-06-28 05:26:00,
2013-06-28 01:31:00,70.8,69.6,29.51,SSW,203,2.0,2.0,96,0.00,,,0.00,520,WeatherCatV1.14B232,2013-06-28 05:31:00,
2013-06-28 01:36:00,70.8,69.6,29.51,SSW,203,1.0,1.0,96,0.00,,,0.00,520,WeatherCatV1.14B232,2013-06-28 05:36:00,
2013-06-28 01:41:00,70.8,69.6,29.51,SSW,203,1.0,3.0,96,0.00,,,0.00,520,WeatherCatV1.14B232,2013-06-28 05:41:00,
2013-06-28 01:46:00,70.7,69.5,29.51,SSW,203,0.0,2.0,96,0.00,,,0.00,520,WeatherCatV1.14B232,2013-06-28 05:46:00,
2013-06-28 01:51:00,70.8,69.6,29.51,SSW,203,1.0,2.0,96,0.00,,,0.00,520,WeatherCatV1.14B232,2013-06-28 05:51:00,
2013-06-28 01:56:00,70.7,69.5,29.51,SSW,203,0.0,1.0,96,0.00,,,0.00,520,WeatherCatV1.14B232,2013-06-28 05:56:00,
2013-06-28 02:01:00,70.7,69.5,29.50,SSW,203,1.0,2.0,96,0.00,,,0.00,520,WeatherCatV1.14B232,2013-06-28 06:01:00,
2013-06-28 02:02:00,70.7,69.5,29.50,SSW,203,1.0,2.0,96,0.00,,,0.00,520,WeatherCatV1.14B232,2013-06-28 06:02:00,
2013-06-28 02:07:00,70.6,69.4,29.50,SSW,203,1.0,1.0,96,0.00,,,0.00,520,WeatherCatV1.14B232,2013-06-28 06:07:00,
2013-06-28 02:12:00,70.5,69.3,29.51,SSW,203,1.0,3.0,96,0.00,,,0.00,520,WeatherCatV1.14B232,2013-06-28 06:12:00,
2013-06-28 02:17:00,70.5,69.3,29.50,SSW,203,1.0,2.0,96,0.00,,,0.00,520,WeatherCatV1.14B232,2013-06-28 06:17:00,
2013-06-28 02:22:00,70.5,69.3,29.50,SSW,203,1.0,1.0,96,0.00,,,0.00,520,WeatherCatV1.14B232,2013-06-28 06:22:00,
2013-06-28 02:27:00,70.5,69.3,29.50,SSW,203,0.0,0.0,96,0.00,,,0.00,520,WeatherCatV1.14B232,2013-06-28 06:27:00,
2013-06-28 02:32:00,70.5,69.3,29.50,SSW,203,0.0,1.0,96,0.00,,,0.00,520,WeatherCatV1.14B232,2013-06-28 06:32:00,
2013-06-28 02:37:00,70.6,69.4,29.50,SSW,203,1.0,1.0,96,0.00,,,0.00,520,WeatherCatV1.14B232,2013-06-28 06:37:00,
2013-06-28 02:42:00,70.6,69.4,29.50,SSW,203,1.0,1.0,96,0.00,,,0.00,520,WeatherCatV1.14B232,2013-06-28 06:42:00,
2013-06-28 02:47:00,70.7,69.5,29.50,SSW,203,1.0,1.0,96,0.00,,,0.00,520,WeatherCatV1.14B232,2013-06-28 06:47:00,
2013-06-28 02:52:00,70.7,69.5,29.50,SSW,203,0.0,1.0,96,0.00,,,0.00,520,WeatherCatV1.14B232,2013-06-28 06:52:00,
2013-06-28 02:57:00,70.8,69.6,29.50,SSW,203,0.0,1.0,96,0.00,,,0.00,520,WeatherCatV1.14B232,2013-06-28 06:57:00,
2013-06-28 03:02:00,70.8,69.6,29.50,SSW,203,0.0,0.0,96,0.00,,,0.00,520,WeatherCatV1.14B232,2013-06-28 07:02:00,
2013-06-28 03:07:00,70.9,69.7,29.50,SSW,203,0.0,0.0,96,0.00,,,0.00,520,WeatherCatV1.14B232,2013-06-28 07:07:00,
2013-06-28 03:12:00,70.8,69.6,29.50,SSW,203,0.0,1.0,96,0.00,,,0.00,520,WeatherCatV1.14B232,2013-06-28 07:12:00,
2013-06-28 03:17:00,70.8,69.6,29.49,SSW,203,0.0,1.0,96,0.00,,,0.00,520,WeatherCatV1.14B232,2013-06-28 07:17:00,
2013-06-28 03:22:00,70.8,69.6,29.49,SSW,203,0.0,1.0,96,0.00,,,0.00,520,WeatherCatV1.14B232,2013-06-28 07:22:00,
2013-06-28 03:27:00,70.8,69.6,29.49,SSW,203,0.0,2.0,96,0.00,,,0.00,520,WeatherCatV1.14B232,2013-06-28 07:27:00,
2013-06-28 03:32:00,70.8,69.6,29.49,SSW,203,1.0,1.0,96,0.00,,,0.00,520,WeatherCatV1.14B232,2013-06-28 07:32:00,
2013-06-28 03:37:00,70.8,69.6,29.49,SSW,203,1.0,1.0,96,0.00,,,0.00,520,WeatherCatV1.14B232,2013-06-28 07:37:00,
2013-06-28 03:42:00,70.8,69.6,29.49,SSW,203,0.0,1.0,96,0.00,,,0.00,520,WeatherCatV1.14B232,2013-06-28 07:42:00,
2013-06-28 03:47:00,70.9,69.7,29.49,SSW,203,0.0,1.0,96,0.00,,,0.00,520,WeatherCatV1.14B232,2013-06-28 07:47:00,
2013-06-28 03:52:00,70.9,69.7,29.49,SSW,203,1.0,1.0,96,0.00,,,0.00,520,WeatherCatV1.14B232,2013-06-28 07:52:00,
2013-06-28 03:57:00,71.0,69.8,29.49,SSW,203,0.0,1.0,96,0.00,,,0.00,520,WeatherCatV1.14B232,2013-06-28 07:57:00,
2013-06-28 04:02:00,71.0,69.8,29.49,SSW,203,1.0,1.0,96,0.00,,,0.00,520,WeatherCatV1.14B232,2013-06-28 08:02:00,
2013-06-28 04:07:00,71.0,69.8,29.49,SSW,203,0.0,2.0,96,0.00,,,0.00,520,WeatherCatV1.14B232,2013-06-28 08:07:00,
2013-06-28 04:12:00,71.0,69.8,29.49,SSW,203,0.0,2.0,96,0.00,,,0.00,520,WeatherCatV1.14B232,2013-06-28 08:12:00,
2013-06-28 04:17:00,71.0,69.8,29.49,SSW,202,0.0,0.0,96,0.00,,,0.00,520,WeatherCatV1.14B232,2013-06-28 08:17:00,
2013-06-28 04:22:00,70.9,69.7,29.48,SSW,203,1.0,1.0,96,0.00,,,0.00,520,WeatherCatV1.14B232,2013-06-28 08:22:00,
2013-06-28 04:27:00,70.9,69.7,29.48,SSW,203,0.0,1.0,96,0.00,,,0.00,520,WeatherCatV1.14B232,2013-06-28 08:27:00,
2013-06-28 04:32:00,70.9,69.7,29.48,SSW,203,0.0,0.0,96,0.00,,,0.00,520,WeatherCatV1.14B232,2013-06-28 08:32:00,
2013-06-28 04:37:00,70.9,69.7,29.48,SSW,203,1.0,1.0,96,0.00,,,0.00,520,WeatherCatV1.14B232,2013-06-28 08:37:00,
2013-06-28 04:42:00,70.9,69.7,29.49,SSW,203,0.0,0.0,96,0.00,,,0.00,520,WeatherCatV1.14B232,2013-06-28 08:42:00,
2013-06-28 04:47:00,70.9,69.7,29.48,SSW,203,0.0,1.0,96,0.00,,,0.00,520,WeatherCatV1.14B232,2013-06-28 08:47:00,
2013-06-28 04:52:00,70.9,69.7,29.48,SSW,203,0.0,1.0,96,0.00,,,0.00,520,WeatherCatV1.14B232,2013-06-28 08:52:00,
2013-06-28 04:57:00,70.9,69.7,29.48,SSW,203,0.0,2.0,96,0.00,,,0.00,520,WeatherCatV1.14B232,2013-06-28 08:57:00,
2013-06-28 05:02:00,70.8,69.6,29.49,SSW,203,1.0,1.0,96,0.00,,,0.00,520,WeatherCatV1.14B232,2013-06-28 09:02:00,
2013-06-28 05:07:00,70.8,69.6,29.48,SSW,202,0.0,1.0,96,0.00,,,0.00,520,WeatherCatV1.14B232,2013-06-28 09:07:00,
2013-06-28 05:12:00,70.8,69.6,29.49,SSW,203,1.0,2.0,96,0.00,,,0.00,520,WeatherCatV1.14B232,2013-06-28 09:12:00,
2013-06-28 05:17:00,70.9,69.7,29.49,SSW,203,0.0,0.0,96,0.00,,,0.00,520,WeatherCatV1.14B232,2013-06-28 09:17:00,
2013-06-28 05:22:00,70.8,69.6,29.49,SSW,203,0.0,0.0,96,0.00,,,0.00,520,WeatherCatV1.14B232,2013-06-28 09:22:00,
2013-06-28 05:27:00,70.8,69.6,29.49,SSW,203,0.0,1.0,96,0.00,,,0.00,520,WeatherCatV1.14B232,2013-06-28 09:27:00,
2013-06-28 05:32:00,70.8,69.6,29.50,SSW,203,0.0,1.0,96,0.00,,,0.00,520,WeatherCatV1.14B232,2013-06-28 09:32:00,
2013-06-28 05:37:00,70.8,69.6,29.50,SSW,203,0.0,0.0,96,0.00,,,0.00,520,WeatherCatV1.14B232,2013-06-28 09:37:00,
2013-06-28 05:42:00,70.8,69.6,29.50,SSW,203,0.0,1.0,96,0.00,,,0.00,520,WeatherCatV1.14B232,2013-06-28 09:42:00,
2013-06-28 05:47:00,70.7,69.5,29.50,SSW,203,0.0,0.0,96,0.00,,,0.00,520,WeatherCatV1.14B232,2013-06-28 09:47:00,
2013-06-28 05:52:00,70.7,69.5,29.50,SSW,202,0.0,0.0,96,0.00,,,0.00,520,WeatherCatV1.14B232,2013-06-28 09:52:00,
2013-06-28 05:57:00,70.7,69.5,29.50,SSW,203,0.0,1.0,96,0.00,,,0.00,520,WeatherCatV1.14B232,2013-06-28 09:57:00,
2013-06-28 06:02:00,70.7,69.5,29.49,SSW,203,0.0,0.0,96,0.00,,,0.00,520,WeatherCatV1.14B232,2013-06-28 10:02:00,
2013-06-28 06:07:00,70.7,69.5,29.50,SSW,203,0.0,0.0,96,0.00,,,0.00,520,WeatherCatV1.14B232,2013-06-28 10:07:00,
2013-06-28 06:12:00,70.7,69.5,29.50,SSW,203,0.0,0.0,96,0.00,,,0.00,520,WeatherCatV1.14B232,2013-06-28 10:12:00,
2013-06-28 06:17:00,70.7,69.5,29.50,SSW,202,0.0,1.0,96,0.00,,,0.00,520,WeatherCatV1.14B232,2013-06-28 10:17:00,
2013-06-28 06:22:00,70.7,69.5,29.50,SSW,203,0.0,2.0,96,0.00,,,0.00,520,WeatherCatV1.14B232,2013-06-28 10:22:00,
2013-06-28 06:27:00,70.8,69.6,29.50,SSW,203,0.0,0.0,96,0.00,,,0.00,520,WeatherCatV1.14B232,2013-06-28 10:27:00,
2013-06-28 06:32:00,70.8,69.6,29.50,SSW,203,0.0,0.0,96,0.00,,,0.00,520,WeatherCatV1.14B232,2013-06-28 10:32:00,
2013-06-28 06:37:00,70.9,69.7,29.50,SSW,203,0.0,0.0,96,0.00,,,0.00,520,WeatherCatV1.14B232,2013-06-28 10:37:00,
2013-06-28 06:42:00,70.9,69.7,29.51,SSW,203,0.0,0.0,96,0.00,,,0.00,520,WeatherCatV1.14B232,2013-06-28 10:42:00,
2013-06-28 06:47:00,70.9,69.7,29.51,SSW,203,0.0,1.0,96,0.00,,,0.00,520,WeatherCatV1.14B232,2013-06-28 10:47:00,
2013-06-28 06:52:00,70.9,69.7,29.51,SSW,203,0.0,1.0,96,0.00,,,0.00,520,WeatherCatV1.14B232,2013-06-28 10:52:00,
2013-06-28 06:57:00,70.9,69.7,29.51,SSW,203,0.0,1.0,96,0.00,,,0.00,520,WeatherCatV1.14B232,2013-06-28 10:57:00,
2013-06-28 07:02:00,70.9,69.7,29.51,SSW,203,0.0,0.0,96,0.00,,,0.00,520,WeatherCatV1.14B232,2013-06-28 11:02:00,
2013-06-28 07:07:00,70.8,69.6,29.51,SSW,203,0.0,0.0,96,0.00,,,0.00,520,WeatherCatV1.14B232,2013-06-28 11:07:00,
2013-06-28 07:12:00,70.9,69.7,29.51,SSW,202,0.0,0.0,96,0.00,,,0.00,520,WeatherCatV1.14B232,2013-06-28 11:12:00,
2013-06-28 07:17:00,70.9,69.7,29.51,SSW,203,0.0,0.0,96,0.00,,,0.00,520,WeatherCatV1.14B232,2013-06-28 11:17:00,
2013-06-28 07:22:00,71.0,69.8,29.51,SSW,203,0.0,0.0,96,0.00,,,0.00,520,WeatherCatV1.14B232,2013-06-28 11:22:00,
2013-06-28 07:27:00,71.1,69.9,29.51,SSW,203,0.0,0.0,96,0.00,,,0.00,520,WeatherCatV1.14B232,2013-06-28 11:27:00,
2013-06-28 07:32:00,71.2,70.0,29.51,SSW,203,0.0,0.0,96,0.00,,,0.00,520,WeatherCatV1.14B232,2013-06-28 11:32:00,
2013-06-28 07:37:00,71.2,70.0,29.51,SSW,203,0.0,0.0,96,0.00,,,0.00,520,WeatherCatV1.14B232,2013-06-28 11:37:00,
2013-06-28 07:42:00,71.3,70.1,29.51,SSW,203,0.0,1.0,96,0.00,,,0.00,520,WeatherCatV1.14B232,2013-06-28 11:42:00,
2013-06-28 07:47:00,71.4,70.2,29.50,SSW,203,0.0,1.0,96,0.00,,,0.00,520,WeatherCatV1.14B232,2013-06-28 11:47:00,
2013-06-28 07:52:00,71.5,70.3,29.51,SSW,203,0.0,1.0,96,0.00,,,0.00,520,WeatherCatV1.14B232,2013-06-28 11:52:00,
2013-06-28 07:57:00,71.6,70.1,29.51,SSW,203,0.0,1.0,95,0.00,,,0.00,520,WeatherCatV1.14B232,2013-06-28 11:57:00,
2013-06-28 08:02:00,71.5,70.0,29.51,SSW,203,0.0,1.0,95,0.55,,,0.07,520,WeatherCatV1.14B232,2013-06-28 12:02:00,
2013-06-28 08:07:00,71.4,69.9,29.51,SSW,203,0.0,0.0,95,0.11,,,0.08,520,WeatherCatV1.14B232,2013-06-28 12:07:00,
2013-06-28 08:12:00,71.3,69.8,29.51,SSW,203,0.0,0.0,95,0.12,,,0.09,520,WeatherCatV1.14B232,2013-06-28 12:12:00,
2013-06-28 08:17:00,71.2,69.7,29.51,SSW,203,0.0,1.0,95,1.95,,,0.15,520,WeatherCatV1.14B232,2013-06-28 12:17:00,
2013-06-28 08:22:00,70.7,69.2,29.51,SSW,203,0.0,0.0,95,0.16,,,0.18,520,WeatherCatV1.14B232,2013-06-28 12:22:00,
2013-06-28 08:27:00,70.4,68.9,29.51,SSW,203,0.0,0.0,95,0.07,,,0.18,520,WeatherCatV1.14B232,2013-06-28 12:27:00,
2013-06-28 08:32:00,70.4,68.9,29.51,SSW,203,0.0,0.0,95,0.06,,,0.19,520,WeatherCatV1.14B232,2013-06-28 12:32:00,
2013-06-28 08:37:00,70.4,69.2,29.50,SSW,203,0.0,0.0,96,0.06,,,0.19,520,WeatherCatV1.14B232,2013-06-28 12:37:00,
2013-06-28 08:42:00,70.7,69.5,29.50,SSW,202,0.0,0.0,96,0.04,,,0.19,520,WeatherCatV1.14B232,2013-06-28 12:42:00,
2013-06-28 08:47:00,71.1,69.9,29.50,SSW,203,0.0,0.0,96,0.00,,,0.19,520,WeatherCatV1.14B232,2013-06-28 12:47:00,
2013-06-28 08:52:00,71.3,70.1,29.50,SSW,203,1.0,1.0,96,0.00,,,0.19,520,WeatherCatV1.14B232,2013-06-28 12:52:00,
2013-06-28 08:57:00,71.5,70.3,29.50,SSW,203,0.0,0.0,96,0.00,,,0.19,520,WeatherCatV1.14B232,2013-06-28 12:57:00,
2013-06-28 09:02:00,71.9,70.7,29.50,SSW,203,0.0,0.0,96,0.00,,,0.19,520,WeatherCatV1.14B232,2013-06-28 13:02:00,
2013-06-28 09:07:00,72.9,72.0,29.49,SSW,203,0.0,1.0,97,0.00,,,0.19,520,WeatherCatV1.14B232,2013-06-28 13:07:00,
2013-06-28 09:12:00,72.8,71.3,29.49,SSW,203,0.0,0.0,95,0.00,,,0.19,520,WeatherCatV1.14B232,2013-06-28 13:12:00,
2013-06-28 09:17:00,73.0,71.2,29.49,SSW,203,0.0,1.0,94,0.00,,,0.19,520,WeatherCatV1.14B232,2013-06-28 13:17:00,
2013-06-28 09:22:00,73.7,72.2,29.49,SSW,203,0.0,0.0,95,0.00,,,0.19,520,WeatherCatV1.14B232,2013-06-28 13:22:00,
2013-06-28 09:27:00,73.9,72.1,29.49,SSW,203,0.0,0.0,94,0.00,,,0.19,520,WeatherCatV1.14B232,2013-06-28 13:27:00,
2013-06-28 09:33:00,74.0,72.2,29.49,SSW,203,0.0,0.0,94,0.00,,,0.19,520,WeatherCatV1.14B232,2013-06-28 13:33:00,
2013-06-28 09:38:00,73.7,71.5,29.49,SSW,203,0.0,0.0,93,0.00,,,0.19,520,WeatherCatV1.14B232,2013-06-28 13:38:00,
2013-06-28 09:43:00,73.5,71.3,29.48,SSW,203,0.0,0.0,93,0.00,,,0.19,520,WeatherCatV1.14B232,2013-06-28 13:43:00,
2013-06-28 09:48:00,73.6,71.4,29.48,SSW,203,0.0,0.0,93,0.00,,,0.19,520,WeatherCatV1.14B232,2013-06-28 13:48:00,
2013-06-28 09:53:00,74.7,73.2,29.48,SSW,203,0.0,0.0,95,0.00,,,0.19,520,WeatherCatV1.14B232,2013-06-28 13:53:00,
2013-06-28 09:58:00,75.6,73.4,29.49,SSW,203,0.0,0.0,93,0.00,,,0.19,520,WeatherCatV1.14B232,2013-06-28 13:58:00,
2013-06-28 10:03:00,76.3,72.8,29.49,SSW,203,0.0,0.0,89,0.00,,,0.19,520,WeatherCatV1.14B232,2013-06-28 14:03:00,
2013-06-28 10:08:00,76.2,72.0,29.49,SSW,203,0.0,0.0,87,0.00,,,0.19,520,WeatherCatV1.14B232,2013-06-28 14:08:00,
2013-06-28 10:13:00,75.9,71.7,29.49,SSW,203,0.0,1.0,87,0.00,,,0.19,520,WeatherCatV1.14B232,2013-06-28 14:13:00,
2013-06-28 10:18:00,75.8,72.0,29.49,SSW,203,0.0,0.0,88,0.00,,,0.19,520,WeatherCatV1.14B232,2013-06-28 14:18:00,
2013-06-28 10:23:00,76.3,72.8,29.49,SSW,203,0.0,0.0,89,0.00,,,0.19,520,WeatherCatV1.14B232,2013-06-28 14:23:00,
2013-06-28 10:28:00,77.0,72.5,29.49,SSW,203,0.0,0.0,86,0.00,,,0.19,520,WeatherCatV1.14B232,2013-06-28 14:28:00,
2013-06-28 10:33:00,76.8,71.9,29.49,SSW,203,0.0,0.0,85,0.00,,,0.19,520,WeatherCatV1.14B232,2013-06-28 14:33:00,
2013-06-28 10:38:00,76.4,71.5,29.49,SSW,203,0.0,1.0,85,0.00,,,0.19,520,WeatherCatV1.14B232,2013-06-28 14:38:00,
2013-06-28 10:43:00,76.9,72.4,29.49,SSW,203,0.0,0.0,86,0.00,,,0.19,520,WeatherCatV1.14B232,2013-06-28 14:43:00,
2013-06-28 10:48:00,77.6,72.7,29.48,SSW,203,0.0,0.0,85,0.00,,,0.19,520,WeatherCatV1.14B232,2013-06-28 14:48:00,
2013-06-28 10:53:00,77.8,71.5,29.48,SSW,203,0.0,1.0,81,0.00,,,0.19,520,WeatherCatV1.14B232,2013-06-28 14:53:00,
2013-06-28 10:58:00,78.0,71.3,29.48,SSW,203,0.0,1.0,80,0.00,,,0.19,520,WeatherCatV1.14B232,2013-06-28 14:58:00,
2013-06-28 11:03:00,78.8,73.2,29.48,SSW,203,0.0,1.0,83,0.00,,,0.19,520,WeatherCatV1.14B232,2013-06-28 15:03:00,
2013-06-28 11:08:00,79.6,72.9,29.48,SSW,203,0.0,1.0,80,0.00,,,0.19,520,WeatherCatV1.14B232,2013-06-28 15:08:00,
2013-06-28 11:12:00,80.2,73.1,29.48,SSW,203,0.0,0.0,79,0.00,,,0.19,520,WeatherCatV1.14B232,2013-06-28 15:12:00,
2013-06-28 11:17:00,80.5,73.0,29.49,SSW,203,0.0,0.0,78,0.00,,,0.19,520,WeatherCatV1.14B232,2013-06-28 15:17:00,
2013-06-28 11:22:00,80.1,71.8,29.49,SSW,203,0.0,0.0,76,0.00,,,0.19,520,WeatherCatV1.14B232,2013-06-28 15:22:00,
2013-06-28 11:27:00,80.2,72.7,29.49,SSW,203,0.0,0.0,78,0.00,,,0.19,520,WeatherCatV1.14B232,2013-06-28 15:27:00,
2013-06-28 11:32:00,80.4,72.5,29.49,SSW,203,0.0,0.0,77,0.00,,,0.19,520,WeatherCatV1.14B232,2013-06-28 15:32:00,
2013-06-28 11:37:00,80.7,73.2,29.49,SSW,203,0.0,1.0,78,0.00,,,0.19,520,WeatherCatV1.14B232,2013-06-28 15:37:00,
2013-06-28 11:42:00,81.5,72.8,29.49,SSW,203,0.0,1.0,75,0.00,,,0.19,520,WeatherCatV1.14B232,2013-06-28 15:42:00,
2013-06-28 11:47:00,81.4,72.7,29.49,SSW,203,0.0,0.0,75,0.00,,,0.19,520,WeatherCatV1.14B232,2013-06-28 15:47:00,
2013-06-28 11:52:00,80.9,71.8,29.50,SSW,203,1.0,1.0,74,0.00,,,0.19,520,WeatherCatV1.14B232,2013-06-28 15:52:00,
2013-06-28 11:57:00,79.8,71.5,29.50,SSW,203,0.0,0.0,76,0.00,,,0.19,520,WeatherCatV1.14B232,2013-06-28 15:57:00,
2013-06-28 12:02:00,79.3,71.8,29.50,SSW,203,0.0,0.0,78,0.00,,,0.19,520,WeatherCatV1.14B232,2013-06-28 16:02:00,
2013-06-28 12:07:00,80.3,73.2,29.50,SSW,203,0.0,1.0,79,0.00,,,0.19,520,WeatherCatV1.14B232,2013-06-28 16:07:00,
2013-06-28 12:12:00,81.4,73.1,29.50,SSW,203,1.0,1.0,76,0.00,,,0.19,520,WeatherCatV1.14B232,2013-06-28 16:12:00,
2013-06-28 12:17:00,82.3,72.3,29.50,SSW,203,1.0,1.0,72,0.00,,,0.19,520,WeatherCatV1.14B232,2013-06-28 16:17:00,
2013-06-28 12:22:00,83.1,71.4,29.50,SSW,203,0.0,2.0,68,0.00,,,0.19,520,WeatherCatV1.14B232,2013-06-28 16:22:00,
2013-06-28 12:27:00,83.2,72.8,29.50,SSW,203,0.0,1.0,71,0.00,,,0.19,520,WeatherCatV1.14B232,2013-06-28 16:27:00,
2013-06-28 12:32:00,83.0,72.6,29.50,SSW,203,1.0,2.0,71,0.00,,,0.19,520,WeatherCatV1.14B232,2013-06-28 16:32:00,
2013-06-28 12:37:00,83.0,72.2,29.49,SSW,203,0.0,2.0,70,0.00,,,0.19,520,WeatherCatV1.14B232,2013-06-28 16:37:00,
2013-06-28 12:42:00,83.2,72.8,29.49,SSW,203,0.0,0.0,71,0.00,,,0.19,520,WeatherCatV1.14B232,2013-06-28 16:42:00,
2013-06-28 12:47:00,83.5,71.4,29.49,SSW,203,1.0,3.0,67,0.00,,,0.19,520,WeatherCatV1.14B232,2013-06-28 16:47:00,
2013-06-28 12:52:00,83.3,71.2,29.49,SSW,203,0.0,1.0,67,0.00,,,0.19,520,WeatherCatV1.14B232,2013-06-28 16:52:00,
2013-06-28 12:57:00,84.0,72.3,29.49,SSW,203,1.0,1.0,68,0.00,,,0.19,520,WeatherCatV1.14B232,2013-06-28 16:57:00,
2013-06-28 13:02:00,84.6,72.4,29.49,SSW,203,0.0,1.0,67,0.00,,,0.19,520,WeatherCatV1.14B232,2013-06-28 17:02:00,
2013-06-28 13:07:00,84.8,71.2,29.48,SSW,203,4.0,4.0,64,0.00,,,0.19,520,WeatherCatV1.14B232,2013-06-28 17:07:00,
2013-06-28 13:12:00,84.4,70.9,29.48,SSW,203,0.0,3.0,64,0.00,,,0.19,520,WeatherCatV1.14B232,2013-06-28 17:12:00,
2013-06-28 13:17:00,84.8,72.1,29.48,SSW,203,1.0,1.0,66,0.00,,,0.19,520,WeatherCatV1.14B232,2013-06-28 17:17:00,
2013-06-28 13:22:00,85.7,74.3,29.48,SSW,203,0.0,1.0,69,0.00,,,0.19,520,WeatherCatV1.14B232,2013-06-28 17:22:00,
2013-06-28 13:27:00,85.2,71.6,29.48,SSW,203,1.0,2.0,64,0.00,,,0.19,520,WeatherCatV1.14B232,2013-06-28 17:27:00,
2013-06-28 13:32:00,85.2,73.4,29.48,SSW,201,0.0,1.0,68,0.00,,,0.19,520,WeatherCatV1.14B232,2013-06-28 17:32:00,
2013-06-28 13:37:00,85.4,72.7,29.48,SSW,201,1.0,2.0,66,0.00,,,0.19,520,WeatherCatV1.14B232,2013-06-28 17:37:00,
2013-06-28 13:42:00,85.4,71.8,29.48,SSW,201,0.0,2.0,64,0.00,,,0.19,520,WeatherCatV1.14B232,2013-06-28 17:42:00,
2013-06-28 13:47:00,85.6,72.5,29.48,SSW,201,1.0,2.0,65,0.00,,,0.19,520,WeatherCatV1.14B232,2013-06-28 17:47:00,
2013-06-28 13:52:00,85.0,72.3,29.48,SSW,201,1.0,1.0,66,0.00,,,0.19,520,WeatherCatV1.14B232,2013-06-28 17:52:00,
2013-06-28 13:57:00,85.4,73.6,29.48,SSW,201,1.0,2.0,68,0.00,,,0.19,520,WeatherCatV1.14B232,2013-06-28 17:57:00,
2013-06-28 14:02:00,84.8,71.2,29.48,SSW,202,0.0,0.0,64,0.00,,,0.19,520,WeatherCatV1.14B232,2013-06-28 18:02:00,
2013-06-28 14:07:00,83.7,71.1,29.48,SSW,201,0.0,0.0,66,0.00,,,0.19,520,WeatherCatV1.14B232,2013-06-28 18:07:00,
2013-06-28 14:12:00,82.8,70.7,29.47,SSW,201,1.0,1.0,67,0.00,,,0.19,520,WeatherCatV1.14B232,2013-06-28 18:12:00,
2013-06-28 14:17:00,82.5,72.1,29.47,SSW,201,1.0,2.0,71,0.00,,,0.19,520,WeatherCatV1.14B232,2013-06-28 18:17:00,
2013-06-28 14:22:00,82.9,71.7,29.47,SSW,198,1.0,2.0,69,0.00,,,0.19,520,WeatherCatV1.14B232,2013-06-28 18:22:00,
2013-06-28 14:27:00,83.8,72.9,29.47,SSW,198,2.0,3.0,70,0.00,,,0.19,520,WeatherCatV1.14B232,2013-06-28 18:27:00,
2013-06-28 14:32:00,84.4,71.8,29.47,SSW,200,1.0,2.0,66,0.00,,,0.19,520,WeatherCatV1.14B232,2013-06-28 18:32:00,
2013-06-28 14:37:00,85.0,72.3,29.47,SSW,198,1.0,3.0,66,0.00,,,0.19,520,WeatherCatV1.14B232,2013-06-28 18:37:00,
2013-06-28 14:42:00,85.5,71.9,29.47,SSW,198,0.0,1.0,64,0.00,,,0.19,520,WeatherCatV1.14B232,2013-06-28 18:42:00,
2013-06-28 14:47:00,85.6,72.0,29.47,SSW,200,0.0,0.0,64,0.00,,,0.19,520,WeatherCatV1.14B232,2013-06-28 18:47:00,
2013-06-28 14:52:00,85.2,71.2,29.47,SSW,200,0.0,1.0,63,0.00,,,0.19,520,WeatherCatV1.14B232,2013-06-28 18:52:00,
2013-06-28 14:57:00,84.8,71.2,29.47,SSW,200,0.0,1.0,64,0.00,,,0.19,520,WeatherCatV1.14B232,2013-06-28 18:57:00,
2013-06-28 15:02:00,84.9,70.9,29.47,SSW,200,1.0,4.0,63,0.00,,,0.19,520,WeatherCatV1.14B232,2013-06-28 19:02:00,
2013-06-28 15:07:00,84.5,70.5,29.47,SSW,200,1.0,2.0,63,0.00,,,0.19,520,WeatherCatV1.14B232,2013-06-28 19:07:00,
2013-06-28 15:12:00,84.1,71.0,29.47,SSW,200,0.0,1.0,65,0.00,,,0.19,520,WeatherCatV1.14B232,2013-06-28 19:12:00,
2013-06-28 15:17:00,84.1,69.6,29.46,SSW,200,1.0,3.0,62,0.00,,,0.19,520,WeatherCatV1.14B232,2013-06-28 19:17:00,
2013-06-28 15:22:00,84.2,70.7,29.46,SSW,198,0.0,1.0,64,0.00,,,0.19,520,WeatherCatV1.14B232,2013-06-28 19:22:00,
2013-06-28 15:27:00,84.0,69.1,29.46,SSW,200,0.0,3.0,61,0.00,,,0.19,520,WeatherCatV1.14B232,2013-06-28 19:27:00,
2013-06-28 15:32:00,83.8,68.4,29.46,SSW,200,0.0,3.0,60,0.00,,,0.19,520,WeatherCatV1.14B232,2013-06-28 19:32:00,
2013-06-28 15:37:00,83.6,70.6,29.46,SSW,200,1.0,1.0,65,0.00,,,0.19,520,WeatherCatV1.14B232,2013-06-28 19:37:00,
2013-06-28 15:42:00,83.7,70.7,29.45,NW,320,0.0,1.0,65,0.00,,,0.19,520,WeatherCatV1.14B232,2013-06-28 19:42:00,
2013-06-28 15:47:00,83.6,69.6,29.45,NW,321,0.0,2.0,63,0.00,,,0.19,520,WeatherCatV1.14B232,2013-06-28 19:47:00,
2013-06-28 15:52:00,83.3,70.7,29.45,NW,321,0.0,1.0,66,0.00,,,0.19,520,WeatherCatV1.14B232,2013-06-28 19:52:00,
2013-06-28 15:57:00,83.1,70.1,29.44,NW,321,0.0,1.0,65,0.00,,,0.19,520,WeatherCatV1.14B232,2013-06-28 19:57:00,
2013-06-28 16:02:00,83.1,69.6,29.44,NW,320,0.0,3.0,64,0.00,,,0.19,520,WeatherCatV1.14B232,2013-06-28 20:02:00,
2013-06-28 16:07:00,83.0,69.1,29.44,NW,321,1.0,2.0,63,0.00,,,0.19,520,WeatherCatV1.14B232,2013-06-28 20:07:00,
2013-06-28 16:12:00,82.9,69.4,29.44,NW,321,0.0,0.0,64,0.00,,,0.19,520,WeatherCatV1.14B232,2013-06-28 20:12:00,
2013-06-28 16:17:00,83.0,70.4,29.44,NW,320,1.0,1.0,66,0.00,,,0.19,520,WeatherCatV1.14B232,2013-06-28 20:17:00,
2013-06-28 16:22:00,83.0,69.5,29.44,NW,320,0.0,1.0,64,0.00,,,0.19,520,WeatherCatV1.14B232,2013-06-28 20:22:00,
2013-06-28 16:27:00,82.7,69.3,29.44,NW,321,0.0,2.0,64,0.00,,,0.19,520,WeatherCatV1.14B232,2013-06-28 20:27:00,
2013-06-28 16:32:00,82.5,69.1,29.44,NW,320,0.0,1.0,64,0.00,,,0.19,520,WeatherCatV1.14B232,2013-06-28 20:32:00,
2013-06-28 16:37:00,82.4,69.4,29.44,NW,321,1.0,1.0,65,0.00,,,0.19,520,WeatherCatV1.14B232,2013-06-28 20:37:00,
2013-06-28 16:42:00,82.5,70.8,29.44,NW,321,1.0,2.0,68,0.00,,,0.19,520,WeatherCatV1.14B232,2013-06-28 20:42:00,
2013-06-28 16:47:00,82.8,69.8,29.45,NW,321,1.0,2.0,65,0.00,,,0.19,520,WeatherCatV1.14B232,2013-06-28 20:47:00,
2013-06-28 16:52:00,82.8,70.3,29.45,NW,320,0.0,2.0,66,0.00,,,0.19,520,WeatherCatV1.14B232,2013-06-28 20:52:00,
2013-06-28 16:57:00,82.6,69.6,29.45,NW,320,0.0,1.0,65,0.00,,,0.19,520,WeatherCatV1.14B232,2013-06-28 20:57:00,
2013-06-28 17:02:00,82.5,70.0,29.45,NW,321,1.0,1.0,66,0.00,,,0.19,520,WeatherCatV1.14B232,2013-06-28 21:02:00,
2013-06-28 17:07:00,82.8,70.3,29.45,NW,321,1.0,2.0,66,0.00,,,0.19,520,WeatherCatV1.14B232,2013-06-28 21:07:00,
2013-06-28 17:12:00,83.0,70.0,29.45,NW,321,0.0,1.0,65,0.00,,,0.19,520,WeatherCatV1.14B232,2013-06-28 21:12:00,
2013-06-28 17:17:00,83.2,69.3,29.45,NW,321,0.0,4.0,63,0.00,,,0.19,520,WeatherCatV1.14B232,2013-06-28 21:17:00,
2013-06-28 17:22:00,83.3,69.8,29.45,NW,321,1.0,1.0,64,0.00,,,0.19,520,WeatherCatV1.14B232,2013-06-28 21:22:00,
2013-06-28 17:27:00,83.3,69.8,29.44,NW,321,0.0,0.0,64,0.00,,,0.19,520,WeatherCatV1.14B232,2013-06-28 21:27:00,
2013-06-28 17:32:00,83.3,70.7,29.44,NW,321,1.0,1.0,66,0.00,,,0.19,520,WeatherCatV1.14B232,2013-06-28 21:32:00,
2013-06-28 17:37:00,82.9,70.3,29.44,NW,321,0.0,1.0,66,0.00,,,0.19,520,WeatherCatV1.14B232,2013-06-28 21:37:00,
2013-06-28 17:42:00,82.9,70.3,29.44,NW,321,0.0,2.0,66,0.00,,,0.19,520,WeatherCatV1.14B232,2013-06-28 21:42:00,
2013-06-28 17:47:00,82.7,70.2,29.44,NW,321,0.0,0.0,66,0.00,,,0.19,520,WeatherCatV1.14B232,2013-06-28 21:47:00,
2013-06-28 17:52:00,82.2,69.7,29.45,NW,321,0.0,0.0,66,0.00,,,0.19,520,WeatherCatV1.14B232,2013-06-28 21:52:00,
2013-06-28 17:57:00,81.9,69.8,29.45,NW,321,0.0,1.0,67,0.00,,,0.19,520,WeatherCatV1.14B232,2013-06-28 21:57:00,
2013-06-28 18:02:00,81.5,69.9,29.45,NW,321,0.0,0.0,68,0.00,,,0.19,520,WeatherCatV1.14B232,2013-06-28 22:02:00,
2013-06-28 18:07:00,81.3,70.6,29.45,NW,321,0.0,1.0,70,0.00,,,0.19,520,WeatherCatV1.14B232,2013-06-28 22:07:00,
2013-06-28 18:12:00,81.2,70.0,29.46,NW,321,0.0,0.0,69,0.00,,,0.19,520,WeatherCatV1.14B232,2013-06-28 22:12:00,
2013-06-28 18:17:00,81.2,70.9,29.46,NW,321,0.0,0.0,71,0.00,,,0.19,520,WeatherCatV1.14B232,2013-06-28 22:17:00,
2013-06-28 18:22:00,81.3,70.1,29.46,NW,321,0.0,2.0,69,0.00,,,0.19,520,WeatherCatV1.14B232,2013-06-28 22:22:00,
2013-06-28 18:27:00,81.6,70.8,29.46,NW,321,0.0,1.0,70,0.00,,,0.19,520,WeatherCatV1.14B232,2013-06-28 22:27:00,
2013-06-28 18:32:00,81.5,70.3,29.46,NW,321,2.0,2.0,69,0.00,,,0.19,520,WeatherCatV1.14B232,2013-06-28 22:32:00,
2013-06-28 18:37:00,81.2,70.9,29.46,NW,321,0.0,1.0,71,0.00,,,0.19,520,WeatherCatV1.14B232,2013-06-28 22:37:00,
2013-06-28 18:42:00,81.0,70.7,29.46,NW,321,0.0,1.0,71,0.00,,,0.19,520,WeatherCatV1.14B232,2013-06-28 22:42:00,
2013-06-28 18:47:00,80.7,70.4,29.46,NW,321,0.0,1.0,71,0.00,,,0.19,520,WeatherCatV1.14B232,2013-06-28 22:47:00,
2013-06-28 18:52:00,80.5,70.6,29.46,NW,321,0.0,0.0,72,0.00,,,0.19,520,WeatherCatV1.14B232,2013-06-28 22:52:00,
2013-06-28 18:57:00,80.3,70.0,29.46,NW,321,0.0,1.0,71,0.00,,,0.19,520,WeatherCatV1.14B232,2013-06-28 22:57:00,
2013-06-28 19:02:00,80.1,70.6,29.46,NW,321,0.0,0.0,73,0.00,,,0.19,520,WeatherCatV1.14B232,2013-06-28 23:02:00,
2013-06-28 19:07:00,80.0,69.7,29.46,NW,321,0.0,1.0,71,0.00,,,0.19,520,WeatherCatV1.14B232,2013-06-28 23:07:00,
2013-06-28 19:12:00,79.9,70.0,29.45,NW,321,0.0,1.0,72,0.00,,,0.19,520,WeatherCatV1.14B232,2013-06-28 23:12:00,
2013-06-28 19:17:00,79.7,69.9,29.45,NW,320,0.0,0.0,72,0.00,,,0.19,520,WeatherCatV1.14B232,2013-06-28 23:17:00,
2013-06-28 19:22:00,79.6,70.2,29.45,NW,321,0.0,1.0,73,0.00,,,0.19,520,WeatherCatV1.14B232,2013-06-28 23:22:00,
2013-06-28 19:27:00,79.4,70.0,29.46,NW,321,0.0,1.0,73,0.00,,,0.19,520,WeatherCatV1.14B232,2013-06-28 23:27:00,
2013-06-28 19:32:00,79.3,69.9,29.45,NW,321,0.0,2.0,73,0.00,,,0.19,520,WeatherCatV1.14B232,2013-06-28 23:32:00,
2013-06-28 19:37:00,79.4,70.4,29.45,NW,325,0.0,1.0,74,0.00,,,0.19,520,WeatherCatV1.14B232,2013-06-28 23:37:00,
2013-06-28 19:42:00,79.3,69.9,29.45,NW,324,0.0,1.0,73,0.00,,,0.19,520,WeatherCatV1.14B232,2013-06-28 23:42:00,
2013-06-28 19:47:00,79.2,69.8,29.45,NW,325,0.0,1.0,73,0.00,,,0.19,520,WeatherCatV1.14B232,2013-06-28 23:47:00,
2013-06-28 19:52:00,79.2,70.2,29.45,NW,326,0.0,0.0,74,0.00,,,0.19,520,WeatherCatV1.14B232,2013-06-28 23:52:00,
2013-06-28 19:57:00,79.0,70.0,29.46,NW,326,0.0,1.0,74,0.00,,,0.19,520,WeatherCatV1.14B232,2013-06-28 23:57:00,
2013-06-28 20:02:00,78.8,69.8,29.46,NW,326,0.0,1.0,74,0.00,,,0.19,520,WeatherCatV1.14B232,2013-06-29 00:02:00,
2013-06-28 20:07:00,78.7,69.7,29.46,NW,326,0.0,0.0,74,0.00,,,0.19,520,WeatherCatV1.14B232,2013-06-29 00:07:00,
2013-06-28 20:12:00,78.5,69.9,29.46,NW,326,0.0,0.0,75,0.00,,,0.19,520,WeatherCatV1.14B232,2013-06-29 00:12:00,
2013-06-28 20:17:00,78.3,69.7,29.47,NW,326,0.0,0.0,75,0.00,,,0.19,520,WeatherCatV1.14B232,2013-06-29 00:17:00,
2013-06-28 20:22:00,78.1,69.9,29.48,NW,326,0.0,0.0,76,0.00,,,0.19,520,WeatherCatV1.14B232,2013-06-29 00:22:00,
2013-06-28 20:27:00,77.9,69.7,29.47,NW,326,0.0,1.0,76,0.00,,,0.19,520,WeatherCatV1.14B232,2013-06-29 00:27:00,
2013-06-28 20:32:00,77.8,69.6,29.47,NW,326,0.0,0.0,76,0.00,,,0.19,520,WeatherCatV1.14B232,2013-06-29 00:32:00,
2013-06-28 20:37:00,77.8,69.6,29.47,NW,326,0.0,1.0,76,0.00,,,0.19,520,WeatherCatV1.14B232,2013-06-29 00:37:00,
2013-06-28 20:42:00,77.7,69.5,29.47,NW,326,1.0,1.0,76,0.00,,,0.19,520,WeatherCatV1.14B232,2013-06-29 00:42:00,
2013-06-28 20:47:00,77.7,69.5,29.47,NW,326,1.0,1.0,76,0.00,,,0.19,520,WeatherCatV1.14B232,2013-06-29 00:47:00,
2013-06-28 20:52:00,77.7,69.1,29.47,NW,326,1.0,2.0,75,0.00,,,0.19,520,WeatherCatV1.14B232,2013-06-29 00:52:00,
2013-06-28 20:57:00,77.8,68.4,29.47,NW,326,0.0,1.0,73,0.00,,,0.19,520,WeatherCatV1.14B232,2013-06-29 00:57:00,
2013-06-28 21:02:00,77.8,68.0,29.47,NW,326,1.0,4.0,72,0.00,,,0.19,520,WeatherCatV1.14B232,2013-06-29 01:02:00,
2013-06-28 21:07:00,77.7,67.9,29.47,NW,326,0.0,2.0,72,0.00,,,0.19,520,WeatherCatV1.14B232,2013-06-29 01:07:00,
2013-06-28 21:12:00,77.6,67.8,29.48,NW,326,2.0,2.0,72,0.00,,,0.19,520,WeatherCatV1.14B232,2013-06-29 01:12:00,
2013-06-28 21:17:00,77.4,67.6,29.48,NW,326,1.0,1.0,72,0.00,,,0.19,520,WeatherCatV1.14B232,2013-06-29 01:17:00,
2013-06-28 21:22:00,77.3,67.6,29.48,NW,326,0.0,1.0,72,0.00,,,0.19,520,WeatherCatV1.14B232,2013-06-29 01:22:00,
2013-06-28 21:27:00,77.2,67.5,29.48,NW,326,0.0,1.0,72,0.00,,,0.19,520,WeatherCatV1.14B232,2013-06-29 01:27:00,
2013-06-28 21:32:00,77.0,67.3,29.48,NW,326,0.0,1.0,72,0.00,,,0.19,520,WeatherCatV1.14B232,2013-06-29 01:32:00,
2013-06-28 21:37:00,76.8,67.5,29.49,NW,326,0.0,1.0,73,0.00,,,0.19,520,WeatherCatV1.14B232,2013-06-29 01:37:00,
2013-06-28 21:42:00,76.6,67.3,29.49,NW,326,0.0,1.0,73,0.00,,,0.19,520,WeatherCatV1.14B232,2013-06-29 01:42:00,
2013-06-28 21:47:00,76.4,67.1,29.49,NW,326,1.0,1.0,73,0.00,,,0.19,520,WeatherCatV1.14B232,2013-06-29 01:47:00,
2013-06-28 21:52:00,76.2,67.3,29.49,NW,326,0.0,1.0,74,0.00,,,0.19,520,WeatherCatV1.14B232,2013-06-29 01:52:00,
2013-06-28 21:57:00,76.0,67.1,29.49,NW,326,0.0,0.0,74,0.00,,,0.19,520,WeatherCatV1.14B232,2013-06-29 01:57:00,
2013-06-28 22:02:00,75.9,67.0,29.50,NW,326,0.0,1.0,74,0.00,,,0.19,520,WeatherCatV1.14B232,2013-06-29 02:02:00,
2013-06-28 22:07:00,75.7,67.2,29.49,NW,326,0.0,1.0,75,0.00,,,0.19,520,WeatherCatV1.14B232,2013-06-29 02:07:00,
2013-06-28 22:12:00,75.6,67.1,29.49,NW,326,0.0,1.0,75,0.00,,,0.19,520,WeatherCatV1.14B232,2013-06-29 02:12:00,
2013-06-28 22:17:00,75.5,67.0,29.49,NW,326,0.0,2.0,75,0.00,,,0.19,520,WeatherCatV1.14B232,2013-06-29 02:17:00,
2013-06-28 22:22:00,75.5,67.0,29.49,NW,326,1.0,1.0,75,0.00,,,0.19,520,WeatherCatV1.14B232,2013-06-29 02:22:00,
2013-06-28 22:27:00,75.3,67.6,29.49,NW,326,0.0,1.0,77,0.00,,,0.19,520,WeatherCatV1.14B232,2013-06-29 02:27:00,
2013-06-28 22:32:00,75.0,67.7,29.49,NW,326,0.0,1.0,78,0.00,,,0.19,520,WeatherCatV1.14B232,2013-06-29 02:32:00,
2013-06-28 22:37:00,74.6,67.6,29.49,NW,326,0.0,0.0,79,0.00,,,0.19,520,WeatherCatV1.14B232,2013-06-29 02:37:00,
2013-06-28 22:42:00,74.2,67.6,29.49,NW,326,0.0,0.0,80,0.00,,,0.19,520,WeatherCatV1.14B232,2013-06-29 02:42:00,
2013-06-28 22:47:00,73.9,67.3,29.49,NW,326,0.0,0.0,80,0.00,,,0.19,520,WeatherCatV1.14B232,2013-06-29 02:47:00,
2013-06-28 22:52:00,73.6,67.4,29.48,NW,326,0.0,0.0,81,0.00,,,0.19,520,WeatherCatV1.14B232,2013-06-29 02:52:00,
2013-06-28 22:57:00,73.3,67.5,29.48,NW,326,0.0,0.0,82,0.00,,,0.19,520,WeatherCatV1.14B232,2013-06-29 02:57:00,
2013-06-28 23:02:00,73.0,67.5,29.48,NW,326,0.0,0.0,83,0.00,,,0.19,520,WeatherCatV1.14B232,2013-06-29 03:02:00,
2013-06-28 23:07:00,72.8,67.3,29.47,NW,326,0.0,0.0,83,0.00,,,0.19,520,WeatherCatV1.14B232,2013-06-29 03:07:00,
2013-06-28 23:12:00,72.6,67.1,29.47,NW,326,0.0,1.0,83,0.00,,,0.19,520,WeatherCatV1.14B232,2013-06-29 03:12:00,
2013-06-28 23:17:00,72.4,67.3,29.48,NW,326,0.0,0.0,84,0.00,,,0.19,520,WeatherCatV1.14B232,2013-06-29 03:17:00,
2013-06-28 23:22:00,72.2,67.4,29.48,NW,326,0.0,0.0,85,0.00,,,0.19,520,WeatherCatV1.14B232,2013-06-29 03:22:00,
2013-06-28 23:27:00,72.0,67.2,29.47,NW,326,0.0,0.0,85,0.00,,,0.19,520,WeatherCatV1.14B232,2013-06-29 03:27:00,
2013-06-28 23:32:00,71.9,67.1,29.47,NW,326,0.0,0.0,85,0.00,,,0.19,520,WeatherCatV1.14B232,2013-06-29 03:32:00,
2013-06-28 23:37:00,71.8,67.4,29.47,NW,326,0.0,0.0,86,0.00,,,0.19,520,WeatherCatV1.14B232,2013-06-29 03:37:00,
2013-06-28 23:42:00,71.7,67.3,29.47,NW,326,0.0,0.0,86,0.00,,,0.19,520,WeatherCatV1.14B232,2013-06-29 03:42:00,
2013-06-28 23:47:00,71.7,67.3,29.47,NW,326,0.0,0.0,86,0.00,,,0.19,520,WeatherCatV1.14B232,2013-06-29 03:47:00,
2013-06-28 23:52:00,71.7,67.3,29.47,NW,326,0.0,1.0,86,0.00,,,0.19,520,WeatherCatV1.14B232,2013-06-29 03:52:00,
2013-06-28 23:57:00,71.7,67.3,29.48,NW,326,0.0,0.0,86,0.00,,,0.19,520,WeatherCatV1.14B232,2013-06-29 03:57:00,